Regional Weather Roundup
Issued by NWS

Home | Current Version | Previous Version | Graphics & Text | Print | Product List | Glossary On
Versions: 1 2 3 4 5 6 7 8 9 10 11 12 13 14 15 16 17 18 19 20 21 22 23 24 25 26 27 28 29 30 31 32 33 34 35 36 37 38 39 40 41 42 43 44 45 46 47 48 49 50
218
ASUS45 KSLC 040710
RWRUT

UTAH REGIONAL WEATHER ROUNDUP
NATIONAL WEATHER SERVICE SALT LAKE CITY UT
100 AM MDT WED MAY 04 2016

UTZ001>011-023>025-040800-

NORTHERN UTAH

CITY           SKY/WX    TMP DP  RH WIND       PRES   REMARKS
BRIGHAM CITY   CLEAR     54  44  69 CALM      30.16S
HILL AFB       CLEAR     55  35  47 E16       30.17S
LOGAN          CLEAR     45  40  82 NE5       30.17S
OGDEN          CLEAR     53  36  52 S10       30.15F
PROVO AIRPORT  CLEAR     54  36  50 SE5       30.18S
SALT LAKE CITY CLEAR     58  38  47 SE6       30.16S
VERNAL         CLEAR     47  30  51 W8        30.23R
WENDOVER       CLEAR     54  39  58 CALM      30.15R
HEBER CITY     CLEAR     39  32  75 CALM      30.23R

$$

UTZ012>022-026-027-040800-

SOUTHERN/CENTRAL UTAH

CITY           SKY/WX    TMP DP  RH WIND       PRES   REMARKS
BLANDING       CLEAR     49  31  49 N10       30.33R
BRYCE CANYON   CLEAR     32  28  85 W6        30.32S WCI  26
CEDAR CITY     PTCLDY    53  27  36 NE8       30.17S
DELTA          CLEAR     50  37  62 CALM      30.16R
HANKSVILLE     CLEAR     50  34  53 CALM      30.20S
MILFORD        CLEAR     49  30  48 W13       30.16R
MOAB/CYNLANDS  CLEAR     52  34  50 CALM      30.17R
PRICE          CLEAR     49  26  41 E3        30.24R
ST GEORGE      SUNNY     68  34  28 CALM      30.06S
KANAB          PTCLDY    54  34  47 NW13      30.21R

$$

REGIONAL REPORTS     COLORADO/ARIZONA

CITY           SKY/WX    TMP DP  RH WIND       PRES   REMARKS
CRAIG, CO      CLEAR     37  31  78 CALM      30.29R
GRAND JUNCTION CLEAR     51  35  54 NE7       30.19R
RIFLE          CLEAR     46  33  60 NE3       30.26R
MONTROSE       CLEAR     50  29  44 SE12      30.27R
CORTEZ         CLEAR     41  31  67 E7        30.28R
PAGE, AZ       CLEAR     58  32  37 SE6       30.14S
GRAND CANYON   PTCLDY    49  30  48 E8        30.25S
KINGMAN        PTCLDY    63  38  39 SE15      30.02S
FLAGSTAFF      CLEAR     37  31  78 CALM      30.26S

$$

REGIONAL REPORTS    NEVADA/IDAHO/WYOMING

CITY           SKY/WX    TMP DP  RH WIND       PRES   REMARKS
LAS VEGAS, NV  PTCLDY    73  36  25 CALM      29.91S
ELY            MOCLDY    44  30  57 CALM      30.20S
ELKO           PTCLDY    50  38  63 E5        30.12S
POCATELLO, ID  CLEAR     44  37  76 NW7       30.17R
BURLEY         PTCLDY    48  33  56 SE3       30.12S
EVANSTON, WY   CLOUDY    46  24  42 SE5       30.29S
ROCK SPRINGS   CLEAR     48  26  42 S9        30.28S
KEMMERER         N/A     39  28  65 N10       30.31R WCI  32

$$




USA.gov is the U.S. government's official web portal to all federal, state and local government web resources and services.